Weather History for North Adams, MA

Change the Weather History Date:

Monday, December 17, 2012

  Actual Average Record
Temperature  
Mean Temperature 36 °F -  
Max Temperature 39 °F 35 °F 63 °F (2000)
Min Temperature 33 °F 20 °F -8 °F (2013)
Degree Days  
Heating Degree Days 29    
Moisture  
Dew Point 28 °F    
Average Humidity 78    
Maximum Humidity 83    
Minimum Humidity 75    
Precipitation  
Precipitation 0.21 in - - ()
Sea Level Pressure  
Sea Level Pressure 29.93 in    
Wind  
Wind Speed 18 mph (ESE)    
Max Wind Speed 22 mph    
Max Gust Speed 31 mph    
Visibility 7 miles    
Events Rain    
Averages and records for this station are not official NWS values.
T = Trace of Precipitation, MM = Missing Value Source: NWS Daily Summary

Daily Weather History Graph

Daily Weather History Graph

Search for Another Location

Airport:

Trip Planner

Search our weather history database for the weather conditions in past years. The results will help you decide how hot, cold, wet, or windy it might be!

Date:

Astronomy

Dec. 17, 2012 Rise Set
Actual Time 7:17 AM EST 4:20 PM EST
Civil Twilight 6:45 AM EST 4:52 PM EST
Nautical Twilight 6:09 AM EST 5:28 PM EST
Astronomical Twilight 5:35 AM EST 6:02 PM EST
Moon 10:19 AM EST (12/17) 9:45 PM EST (12/17)
Length of Visible Light 10h 07m
Length of Day
9h 02m
Waxing Crescent, 24% of the Moon is Illuminated
Dec 17
Waxing Crescent
Dec 20
First Quarter
Dec 28
Full
Jan 4
Last Quarter
Jan 11
New

Hourly Weather History & Observations

Time (EST) Temp. Windchill Dew Point Humidity Pressure Visibility Wind Dir Wind Speed Gust Speed Precip Events Conditions
1:52 AM 33.1 °F 21.2 °F 27.0 °F 78% 30.00 in 9.0 mi East 20.7 mph 26.5 mph 0.00 in Rain Light Rain
2:07 AM 33.8 °F 23.5 °F 26.6 °F 75% 29.98 in 5.0 mi East 16.1 mph 26.5 mph 0.01 in Rain Light Freezing Rain
2:39 AM 33.8 °F 22.2 °F 26.6 °F 75% 29.96 in 7.0 mi ESE 20.7 mph 27.6 mph 0.02 in Rain Light Freezing Rain
2:52 AM 33.1 °F 20.9 °F 27.0 °F 78% 29.99 in 8.0 mi East 21.9 mph 27.6 mph 0.02 in Rain Light Freezing Rain
3:39 AM 33.8 °F 22.8 °F 26.6 °F 75% 29.96 in 3.0 mi East 18.4 mph 25.3 mph 0.03 in Rain Light Freezing Rain
3:47 AM 33.8 °F 22.8 °F 26.6 °F 75% 29.96 in 3.0 mi East 18.4 mph 26.5 mph 0.03 in Rain Light Freezing Rain
3:52 AM 33.1 °F 21.2 °F 27.0 °F 78% 29.98 in 3.0 mi East 20.7 mph 31.1 mph 0.04 in Rain Light Freezing Rain
4:09 AM 33.8 °F 21.9 °F 26.6 °F 75% 29.95 in 3.0 mi ESE 21.9 mph 28.8 mph 0.02 in Rain Rain
4:42 AM 33.8 °F 22.8 °F 26.6 °F 75% 29.92 in 3.0 mi East 18.4 mph 27.6 mph 0.07 in Rain Light Freezing Rain
4:52 AM 33.1 °F 21.9 °F 27.0 °F 78% 29.95 in 4.0 mi East 18.4 mph 25.3 mph 0.09 in Rain Light Freezing Rain
5:02 AM 33.8 °F 22.8 °F 26.6 °F 75% 29.92 in 6.0 mi East 18.4 mph 26.5 mph 0.01 in Rain Light Freezing Rain
5:52 AM 33.1 °F 22.2 °F 27.0 °F 78% 29.96 in 7.0 mi East 17.3 mph 24.2 mph 0.02 in Rain Light Freezing Rain
6:14 AM 33.8 °F 23.9 °F 26.6 °F 75% 29.94 in 6.0 mi East 15.0 mph 23.0 mph 0.02 in Rain Light Rain
6:52 AM 33.1 °F 22.6 °F 26.1 °F 75% 29.98 in 10.0 mi East 16.1 mph 27.6 mph 0.03 in   Overcast
7:52 AM 33.1 °F 22.6 °F 27.0 °F 78% 29.97 in 9.0 mi East 16.1 mph 24.2 mph 0.00 in   Overcast
8:52 AM 33.1 °F 23.4 °F 27.0 °F 78% 29.97 in 10.0 mi East 13.8 mph 23.0 mph N/A   Overcast
9:52 AM 34.0 °F 23.4 °F 27.0 °F 75% 29.96 in 10.0 mi ESE 17.3 mph - N/A   Overcast
10:52 AM 33.1 °F 22.6 °F 28.0 °F 82% 29.97 in 7.0 mi East 16.1 mph 23.0 mph N/A   Overcast
11:52 AM 34.0 °F 24.2 °F 28.0 °F 79% 29.94 in 10.0 mi East 15.0 mph - N/A   Overcast
12:52 PM 35.1 °F 25.9 °F 28.0 °F 76% 29.94 in 10.0 mi East 13.8 mph - N/A   Overcast
1:52 PM 36.0 °F 28.0 °F 28.9 °F 76% 29.92 in 10.0 mi East 11.5 mph - N/A   Overcast
2:52 PM 36.0 °F 26.3 °F 30.0 °F 79% 29.90 in 5.0 mi ESE 16.1 mph - N/A   Haze
3:52 PM 36.0 °F 26.7 °F 30.9 °F 82% 29.89 in 10.0 mi ESE 15.0 mph - N/A   Overcast
4:52 PM 37.0 °F 28.5 °F 30.9 °F 79% 29.86 in 10.0 mi East 13.8 mph 23.0 mph N/A   Overcast
7:52 PM 37.9 °F 28.9 °F 32.0 °F 79% 29.85 in 10.0 mi ESE 16.1 mph - N/A   Overcast
8:52 PM 37.9 °F 29.2 °F 33.1 °F 83% 29.84 in 9.0 mi ESE 15.0 mph 23.0 mph N/A   Overcast
10:52 PM 39.0 °F 29.3 °F 34.0 °F 82% 29.77 in 10.0 mi ESE 19.6 mph - N/A   Overcast
11:52 PM 39.9 °F 31.1 °F 34.0 °F 79% 29.75 in 8.0 mi ESE 17.3 mph - 0.01 in Rain Light Rain